Regional Weather Roundup
Issued by NWS

Home | Current Version | Previous Version | Graphics & Text | Print | Product List | Glossary On
Versions: 1 2 3 4 5 6 7 8 9 10 11 12 13 14 15 16 17 18 19 20 21 22 23 24 25 26 27 28 29 30 31 32 33 34 35 36 37 38 39 40 41 42 43 44 45 46 47 48 49 50
000
ASUS43 KIND 190059
RWRIN

WEATHER ROUNDUP FOR INDIANA
NATIONAL WEATHER SERVICE INDIANAPOLIS IN
800 PM EST SAT NOV 18 2017

NOTE: "FAIR" INDICATES FEW OR NO CLOUDS BELOW 12,000 FEET WITH NO
SIGNIFICANT WEATHER AND/OR OBSTRUCTIONS TO VISIBILITY.

* - STATION DOES NOT REPORT WEATHER SUCH AS PRECIPITATION OR FOG.

+ - STATION NOT QUALITY CONTROLLED BY THE NATIONAL WEATHER SERVICE.
    USE DATA WITH CAUTION...ESPECIALLY DEWPOINT AND RELATIVE
    HUMIDITY OBSERVATIONS.

INZ001>003-010>013-019-020-190200-
NORTHWEST INDIANA

CITY           SKY/WX    TMP DP  RH WIND       PRES   REMARKS
KNOX *+        CLOUDY    41  37  87 NW25G32   29.58R
MICHIGAN CITY+ DRIZZLE   39  37  93 NW16G31   29.62R WCI  30
MONTICELLO +   CLOUDY    40  38  95 NW21G29   29.61R WCI  30
RENSSELAER +   CLOUDY    39  32  75 NW16G28   29.65R WCI  30

$$

LMZ046-743>745-190200-
SOUTHERN LAKE MICHIGAN

STATION/POSITION TIME  TEMP    WIND        PRES    WAVE
                       AIR SEA DIR/SP/G            HT
                 (UTC) (F)     (DEG/KT/KT) (MB)    (FT)
BURNS HARBOR     0040   43     340/ 25/ 33 1003.7R
MICHIGAN CITY    0030   42     320/ 33/ 39   N/A

$$

INZ004-005-014>016-021>024-190200-
NORTH CENTRAL INDIANA

CITY           SKY/WX    TMP DP  RH WIND       PRES   REMARKS
GOSHEN         CLOUDY    40  35  83 NW15      29.53R WCI  32
PERU/GRISSOM   LGT RAIN  42  42 100 NW22G38   29.54R
SOUTH BEND     LGT RAIN  41  41 100 NW15G23   29.57R
WARSAW +       CLOUDY    39  36  87 NW12G20   29.52R WCI  32

$$

INZ006>009-017-018-025>027-190200-
NORTHEAST INDIANA

CITY           SKY/WX    TMP DP  RH WIND       PRES   REMARKS
AUBURN +       CLOUDY    37  34  87 NW14G24   29.48R WCI  29
FORT WAYNE     LGT RAIN  40  37  89 NW17G26   29.48R WCI  31
KENDALLVILLE + DRIZZLE   37  35  94 N18G26    29.48R WCI  27

$$

INZ028-029-035-036-043>045-051>053-190200-
WEST CENTRAL INDIANA

CITY           SKY/WX    TMP DP  RH WIND       PRES   REMARKS
CRAWFORDSVL +  CLOUDY    37  37 100 NW23G32   29.61R WCI  25
GREENCASTLE +  CLOUDY    37  36  93 NW8G22    29.65R WCI  31
LAFAYETTE      CLOUDY    39  37  92 NW18G33   29.64R WCI  30
TERRE HAUTE    CLOUDY    40  36  86 NW21G31   29.70R WCI  30

$$

INZ030>032-037>040-046>048-054>057-064-065-190200-
CENTRAL INDIANA

CITY           SKY/WX    TMP DP  RH WIND       PRES   REMARKS
COLUMBUS       RAIN      41  37  87 NW23G35   29.56R
FRANKFORT +    LGT RAIN  42  40  93 NW21G28   29.61R
INDIANAPOLIS   LGT RAIN  39  36  89 NW22G31   29.59R WCI  29
-EAGLE CREEK   LGT RAIN  40  36  86 NW23G31   29.58R WCI  30
KOKOMO +       LGT RAIN  42  40  92 NW25G32   29.54R
MT COMFORT *+  CLOUDY    41  41 100 NW17G24   29.54R
SHELBYVILLE    RAIN      43  38  82 NW17G26   29.54R

$$

INZ033-034-041-042-049-050-058-059-190200-
EAST CENTRAL INDIANA

CITY           SKY/WX    TMP DP  RH WIND       PRES   REMARKS
MUNCIE         LGT RAIN  42  37  82 N23G39    29.49R
RICHMOND +     CLOUDY    41  39  93 NW22G36   29.42R FOG

$$

INZ060-061-067>069-081>083-085>088-190200-
SOUTHWEST INDIANA

CITY           SKY/WX    TMP DP  RH WIND       PRES   REMARKS
EVANSVILLE     LGT RAIN  39  37  92 NW14G28   29.77R WCI  31
HUNTINGBURG +  LGT RAIN  38  36  92 NW20G31   29.72R WCI  28

$$

INZ062-063-066-070>080-084-089>092-190200-
SOUTH CENTRAL AND SOUTHEAST INDIANA

CITY           SKY/WX    TMP DP  RH WIND       PRES   REMARKS
BLOOMINGTON    LGT RAIN  38  34  85 NW10G21   29.64R WCI  31
MADISON *+     CLOUDY    43  41  93 NW18G29   29.54R
SEYMOUR +      RAIN      43  39  87 NW20G29   29.58R

$$




USA.gov is the U.S. government's official web portal to all federal, state and local government web resources and services.